Miscellaneous Local Product
Issued by NWS Hastings, NE

Home | Current Version | Previous Version | Text Only | Print | Product List | Glossary On
Versions: 1 2 3 4 5 6 7 8 9 10 11 12 13 14 15 16 17 18 19 20 21 22 23 24 25 26 27 28 29 30 31 32 33 34 35 36 37 38 39 40 41 42 43 44 45 46 47 48 49 50
000
AXUS43 KGID 280502
MISGRI

GID CWA HOURLY WEATHER ROUNDUP
NATIONAL WEATHER SERVICE HASTINGS NE
1200 AM CDT SAT MAR 28 2015

NOTE: "FAIR" INDICATES FEW OR NO CLOUDS BELOW 12,000 FEET WITH NO
SIGNIFICANT WEATHER AND/OR OBSTRUCTIONS TO VISIBILITY.

...SOUTH CENTRAL NEBRASKA...

CITY           SKY/WX    TMP DP  RH WIND       PRES   REMARKS
GRAND ISLAND   PTCLDY    33  23  66 S12       30.01F WCI  24
HASTINGS       PTCLDY    36  24  62 S8        29.99F WCI  30
KEARNEY        CLOUDY    37  25  60 S9        29.99S WCI  31
ORD            PTCLDY    34  24  67 SE5       29.98S WCI  30
YORK           CLOUDY    36  25  64 SE15      30.03S WCI  26
AURORA         CLOUDY    34  24  68 S10       30.01F WCI  26
LEXINGTON      PTCLDY    44  33  64 CALM      29.98R
HOLDREGE       CLEAR     37  28  69 SE9       29.98S WCI  30
HEBRON         CLOUDY    35  24  63 E5        30.04F WCI  31

...NEBRASKA PANHANDLE...

CITY           SKY/WX    TMP DP  RH WIND       PRES   REMARKS
CHADRON        CLOUDY    42  33  70 W6        29.98S
ALLIANCE       CLOUDY    43  32  65 NW6       30.00F
SCOTTSBLUFF    PTCLDY    45  32  60 NW5       30.03R
SIDNEY         CLEAR     37  30  75 W6        30.04S WCI  32

...WESTERN AND NORTH CENTRAL NEBRASKA...

CITY           SKY/WX    TMP DP  RH WIND       PRES   REMARKS
VALENTINE      CLEAR     39  31  72 N3        29.95R
AINSWORTH      CLOUDY    43  34  68 SW3       29.95R
ONEILL         CLOUDY    37  30  76 S13       29.98R WCI  28
BROKEN BOW     CLEAR     34  29  82 CALM      29.96S
IMPERIAL       PTCLDY    47  32  56 W3        30.00R
NORTH PLATTE   PTCLDY    40  33  76 CALM      29.98S
MCCOOK         MOCLDY    45  34  65 NE3       29.98R

...EASTERN NEBRASKA...

CITY           SKY/WX    TMP DP  RH WIND       PRES   REMARKS
NORFOLK        CLOUDY    33  26  75 SE14      30.02F WCI  23
SO SIOUX CITY  CLOUDY    34  24  67 SE9       30.09R WCI  27
TEKAMAH        CLOUDY    36  22  56 SE10      30.09F WCI  28
COLUMBUS       CLOUDY    34  21  60 SE7       30.06F WCI  28
ALBION         CLOUDY    34  26  73 SE7       30.01S WCI  28
OMAHA EPPLEY   CLOUDY    37  20  50 SE9       30.09F WCI  30
OFFUTT AFB     CLOUDY    36  22  56 SE7       30.08F WCI  30
MILLARD        CLOUDY    37  22  56 SE6       30.09S WCI  32
LINCOLN        CLOUDY    36  22  56 SE10      30.08F WCI  28
NEBRASKA CITY  CLOUDY    36  19  51 SE8       30.10S WCI  30
BEATRICE       CLOUDY    36  25  64 SE8       30.07S WCI  29
FALLS CITY     CLOUDY    36  24  62 SE7       30.10F WCI  30

...NORTHERN KANSAS...

CITY           SKY/WX    TMP DP  RH WIND       PRES   REMARKS
GOODLAND       CLEAR     48  35  60 W9        30.02F
HILL CITY      CLEAR     47  34  60 NE7       29.97R
NORTON         CLEAR     43  30  61 E6        29.97S
PHILLIPSBURG   CLEAR     45  32  61 E9        30.00R
SMITH CENTER   PTCLDY    39  27  60 E14       30.01F WCI  31
BELOIT         PTCLDY    43  27  52 E5        30.02F
HAYS           PTCLDY    48  32  53 SW9       29.98R
RUSSELL        MOCLDY    46  35  65 SE13      29.98R
CONCORDIA      CLOUDY    39  25  57 E7        30.04F WCI  34
SALINA         CLOUDY    46  30  53 SE9       30.06F
TOPEKA         CLOUDY    40  22  48 E8        30.12F WCI  34



USA.gov is the U.S. government's official web portal to all federal, state and local government web resources and services.